Wind_Speed
21 21 21 20 22 23 24 26 28 28 30 32 32 32 33 33 33 33 32 32 31 31 32 32 32 33 33 33 33 33 33 32 32 33 33 33 31 29 28 28 28 27 26 25
21 21 22 22 22 23 24 25 27 29 31 31 32 34 35 34 34 32 32 32 32 32 32 32 32 32 32 32 33 34 33 33 32 33 33 32 31 29 28 28 27 27 26 26
21 21 22 22 23 24 24 25 27 29 30 31 31 33 34 34 34 33 32 31 31 32 32 32 32 33 33 33 34 33 33 33 32 32 32 31 30 29 28 28 27 26 25 26
20 20 21 22 23 24 25 25 27 29 29 29 30 31 33 33 32 31 32 31 31 31 32 32 32 33 33 33 34 33 33 32 32 31 31 30 31 30 29 28 27 26 25 26
19 20 21 21 23 24 24 26 27 27 27 29 30 31 32 32 32 32 32 31 31 31 31 31 31 32 32 33 33 33 33 32 31 31 30 29 30 30 29 28 28 27 26 26
19 20 21 22 23 23 24 26 24 25 26 26 27 27 29 30 30 30 31 30 28 29 29 30 30 31 31 32 32 32 32 32 31 30 29 29 29 29 29 29 28 28 27 26
20 20 21 23 23 23 24 25 25 25 26 26 27 26 28 28 29 29 28 28 28 27 28 28 28 29 29 30 31 31 31 31 31 30 30 30 30 30 29 28 28 28 27 27
22 22 23 23 24 24 24 24 25 25 26 27 27 28 28 28 28 28 27 27 26 25 25 26 27 28 28 29 30 31 30 29 29 30 30 30 29 29 28 28 28 29 28 27
23 23 23 24 24 23 24 25 25 26 26 27 27 27 27 26 27 27 26 25 24 24 24 25 26 27 27 29 29 29 28 28 28 29 28 28 29 29 29 28 28 28 27 27
23 22 23 24 24 25 24 25 25 26 27 28 27 27 27 27 27 27 26 25 24 24 24 24 24 25 26 27 27 27 27 27 26 27 27 28 28 28 28 28 28 27 27 27
23 23 24 24 24 25 25 26 26 26 26 26 26 26 26 26 26 26 26 25 24 24 24 23 24 25 25 24 24 24 25 26 26 27 27 27 27 27 28 28 28 28 28 28
23 23 23 22 22 23 23 24 24 24 24 24 24 25 25 24 25 25 25 25 24 24 24 24 23 23 23 23 24 24 24 25 26 27 27 27 27 28 29 29 29 29 29 30
23 22 22 21 21 22 22 22 22 22 22 22 22 23 23 23 23 24 24 23 23 23 23 23 23 23 23 23 23 24 24 24 25 26 26 26 27 27 28 29 30 30 30 30
21 21 20 20 20 20 20 20 20 20 20 20 21 21 22 22 21 21 21 20 20 21 21 21 21 22 23 23 23 24 24 24 24 24 25 25 26 27 28 29 29 29 29 29
20 20 21 20 20 21 20 20 19 20 20 20 20 20 20 19 19 19 19 19 19 20 20 20 20 21 22 22 22 22 22 22 23 23 24 24 24 25 26 27 28 28 28 29
20 21 21 21 20 20 20 20 20 19 19 19 19 19 19 19 19 19 19 19 19 19 20 19 20 20 21 21 21 21 20 21 21 21 21 22 23 23 23 24 25 26 27 26
21 21 21 20 20 20 20 19 19 19 19 18 18 18 19 20 20 20 19 19 19 19 19 19 18 18 19 19 20 20 20 20 20 19 19 19 20 21 22 22 23 23 24 24
21 21 21 20 20 20 19 18 18 19 19 19 19 19 19 20 20 20 19 19 19 18 18 17 17 17 17 18 18 18 19 19 19 19 20 20 20 21 22 22 22 23 24 24
20 19 19 20 19 19 18 19 19 19 19 19 19 19 20 20 20 19 19 18 17 17 16 16 16 16 16 16 16 17 17 17 17 17 18 19 19 20 21 21 22 23 23 24
19 19 19 18 18 18 18 18 18 19 19 19 19 19 19 18 18 18 18 17 16 15 15 15 15 15 15 15 15 15 15 15 15 16 17 19 19 19 20 21 22 22 23 24
18 17 17 17 18 18 18 18 18 18 18 18 18 18 17 17 17 16 16 16 16 15 15 14 14 15 16 16 16 16 15 15 15 15 16 17 18 18 19 20 21 22 23 24
18 17 17 17 17 17 17 17 18 18 17 17 17 17 16 16 16 16 16 15 15 15 15 15 14 14 14 15 15 15 15 15 16 16 17 17 18 19 20 20 21 22 23 22
17 17 17 17 17 17 17 18 18 18 17 17 16 16 16 16 16 16 15 15 15 14 14 14 14 14 13 14 15 15 15 16 16 17 17 18 18 19 20 20 20 21 22 21
17 17 17 17 18 18 18 17 17 16 16 15 14 14 15 16 16 16 16 15 14 15 15 14 13 14 14 14 15 16 16 16 16 16 17 17 17 18 19 19 19 19 20 20
17 17 18 17 17 17 16 16 15 15 15 14 15 15 16 16 16 16 15 14 14 14 14 14 15 15 15 15 15 15 15 16 16 17 17 17 17 17 17 18 18 18 19 19
17 17 16 16 16 15 15 15 15 15 15 15 15 15 15 15 15 15 15 15 14 14 15 16 16 15 15 14 14 14 14 14 15 15 15 16 16 17 17 17 17 18 18 17
17 16 16 16 15 15 14 14 14 15 15 15 15 15 15 15 14 14 15 15 15 15 15 15 15 15 14 14 14 14 14 14 14 15 15 15 16 17 17 17 17 17 16 16
Wind_Direction
264 260 259 260 258 258 259 262 264 266 268 269 268 268 270 272 273 272 272 270 269 269 269 270 269 268 270 268 269 271 270 269 268 267 267 265 265 265 265 267 268 267 267 268
267 264 260 262 264 266 267 266 266 266 267 268 266 267 269 272 273 273 272 270 270 271 271 270 270 269 269 270 270 271 270 268 268 266 264 264 262 262 264 266 269 268 266 267
271 269 266 263 262 265 270 272 270 268 267 268 269 268 267 271 274 275 274 273 273 271 270 269 269 270 269 270 270 271 269 267 265 265 265 263 261 262 263 265 268 267 267 265
275 270 269 269 271 270 270 270 270 272 270 269 268 269 271 271 273 275 276 275 274 271 270 269 269 270 271 270 269 269 268 266 264 262 263 261 260 261 262 262 265 266 266 266
276 272 272 274 275 273 271 269 271 270 268 269 273 273 275 275 275 276 275 275 274 272 270 269 269 270 271 270 269 268 266 265 264 262 260 260 260 259 260 260 261 261 261 263
278 273 274 275 274 275 275 274 275 275 275 274 275 277 276 276 276 278 278 278 274 270 269 269 270 269 268 268 267 266 265 264 263 260 258 259 261 260 261 260 259 259 260 262
278 275 275 277 279 278 277 277 278 280 278 278 278 279 278 280 281 283 282 279 277 272 269 270 271 269 267 267 268 266 264 263 262 260 259 259 260 260 260 260 260 260 262 261
276 278 275 279 279 279 278 281 281 280 279 279 280 281 281 281 282 283 284 282 278 274 274 272 271 270 267 268 268 266 264 262 260 258 257 258 257 258 259 260 261 262 262 261
276 279 276 277 277 280 279 280 281 280 280 280 281 280 280 281 282 283 284 285 282 279 277 274 273 272 269 269 268 265 261 261 258 256 256 256 257 257 258 259 259 260 259 259
277 279 279 280 278 279 281 282 283 282 282 280 280 281 281 281 282 284 284 283 282 281 279 276 274 273 271 269 266 264 262 261 259 259 257 256 257 256 256 258 258 257 256 258
277 277 276 277 278 280 282 283 283 285 284 284 281 282 284 284 283 283 283 283 281 280 278 276 275 275 272 269 267 264 262 259 257 257 257 257 256 255 256 258 257 257 256 258
275 276 277 277 278 281 283 283 283 285 286 285 284 284 285 285 284 284 283 281 279 277 277 276 275 273 272 270 267 267 266 263 259 258 258 258 258 257 256 256 257 258 258 259
275 276 277 277 279 282 284 286 286 287 286 286 286 287 288 289 287 285 283 279 278 278 277 275 274 274 272 271 270 269 268 266 262 260 259 257 256 256 255 255 258 259 259 258
275 276 277 277 279 281 284 287 288 289 290 289 290 291 291 291 291 289 286 283 282 282 282 280 277 275 274 272 271 269 267 266 263 261 259 257 256 256 256 256 257 257 258 256
276 277 278 279 281 281 283 285 287 288 291 293 292 293 293 294 294 292 289 287 285 285 284 282 279 277 276 275 275 272 268 266 263 261 258 256 257 256 256 255 257 257 257 258
280 280 279 279 280 282 284 283 284 289 293 293 295 295 296 295 295 296 293 290 286 286 286 283 281 279 277 275 275 273 269 265 264 260 258 257 256 257 256 256 257 257 258 261
282 280 280 280 280 282 285 285 287 288 291 294 296 296 297 297 295 295 294 291 287 287 287 286 285 284 281 279 278 274 271 267 264 262 260 260 259 260 259 260 261 262 262 263
282 280 279 280 280 282 286 288 288 288 291 293 295 297 297 297 298 297 295 294 290 289 290 287 285 285 285 283 278 273 271 269 264 261 262 263 262 262 262 262 262 263 264 267
283 280 280 280 280 283 287 289 289 288 291 293 295 298 298 299 300 300 298 297 294 290 290 288 285 285 284 284 281 277 272 269 269 265 265 265 263 263 263 263 264 264 264 266
285 282 280 279 280 283 287 288 289 289 290 294 296 298 300 299 300 300 297 295 294 293 290 288 286 285 284 284 281 278 279 278 274 270 269 268 267 267 266 265 266 266 267 268
286 283 281 280 282 283 285 286 288 290 291 293 296 299 301 301 301 301 301 296 292 293 292 289 285 282 280 279 278 278 280 281 278 276 275 272 270 270 269 269 269 268 269 269
285 283 282 282 284 285 285 285 287 290 293 293 295 298 300 303 302 301 301 304 301 296 294 291 288 283 278 278 281 282 282 283 282 281 280 278 276 275 273 273 272 271 270 269
284 282 282 283 285 286 285 284 285 287 290 291 293 295 298 302 304 304 304 306 306 304 299 295 292 287 283 283 284 283 284 284 284 284 285 284 282 279 277 275 274 272 271 269
282 279 279 282 284 284 285 286 284 285 287 290 293 296 299 302 303 303 303 304 304 304 303 301 298 297 294 290 288 287 287 287 286 285 287 288 287 284 281 278 276 275 273 271
285 282 282 284 285 285 285 285 284 284 286 289 291 293 296 299 301 301 301 301 301 302 303 303 302 299 296 293 291 289 289 288 287 287 285 285 287 287 285 281 279 277 274 272
286 285 284 285 286 285 285 286 286 287 288 289 292 294 296 297 298 301 300 298 298 299 302 302 302 301 300 298 297 297 297 295 289 289 291 290 288 287 288 287 281 276 273 272
287 285 284 284 286 287 288 289 290 288 287 290 292 294 295 296 297 298 300 298 295 298 301 302 301 300 301 301 298 297 297 297 297 294 291 291 290 289 291 290 285 279 273 272
Height
5803 5802 5802 5802 5802 5802 5802 5802 5802 5801 5799 5797 5795 5794 5794 5793 5793 5793 5791 5791 5791 5792 5791 5792 5792 5792 5791 5792 5792 5793 5793 5793 5793 5794 5795 5796 5797 5798 5799 5800 5801 5802 5803 5804
5796 5796 5796 5795 5795 5795 5795 5794 5793 5792 5791 5790 5788 5787 5785 5785 5784 5783 5782 5782 5783 5783 5782 5783 5783 5783 5783 5783 5783 5784 5784 5784 5784 5785 5786 5787 5788 5789 5791 5792 5793 5794 5795 5796
5790 5789 5788 5788 5788 5788 5788 5786 5785 5784 5783 5781 5779 5778 5777 5777 5776 5774 5773 5773 5774 5774 5774 5774 5774 5774 5774 5774 5775 5775 5775 5775 5776 5776 5777 5778 5780 5781 5783 5784 5785 5786 5787 5788
5783 5783 5782 5784 5782 5781 5780 5779 5777 5776 5774 5772 5770 5769 5769 5768 5767 5767 5766 5765 5765 5765 5765 5765 5765 5765 5765 5765 5765 5766 5766 5766 5767 5767 5769 5770 5772 5773 5775 5776 5778 5779 5780 5781
5777 5777 5776 5776 5775 5773 5772 5771 5770 5768 5766 5764 5762 5762 5761 5760 5759 5758 5757 5755 5756 5756 5756 5756 5756 5756 5756 5756 5756 5756 5756 5757 5758 5759 5760 5762 5763 5765 5766 5768 5770 5771 5773 5774
5771 5770 5770 5770 5768 5767 5767 5764 5763 5761 5759 5757 5756 5756 5754 5752 5751 5750 5748 5747 5746 5747 5747 5747 5748 5747 5747 5746 5746 5746 5747 5748 5749 5750 5752 5753 5755 5756 5758 5760 5761 5763 5765 5767
5766 5765 5764 5763 5762 5762 5761 5758 5756 5754 5753 5751 5750 5748 5747 5745 5743 5742 5740 5739 5738 5738 5738 5739 5738 5738 5738 5737 5737 5737 5737 5738 5739 5741 5743 5744 5746 5748 5750 5752 5754 5755 5757 5759
5760 5759 5760 5757 5756 5756 5754 5751 5749 5748 5747 5745 5743 5742 5740 5739 5737 5735 5734 5732 5731 5730 5730 5730 5730 5729 5729 5729 5729 5728 5728 5730 5731 5732 5734 5736 5738 5740 5742 5744 5746 5748 5750 5751
5755 5755 5753 5750 5749 5748 5747 5745 5744 5742 5741 5739 5737 5735 5734 5732 5730 5729 5727 5726 5724 5723 5722 5722 5721 5720 5720 5720 5719 5719 5719 5721 5723 5724 5726 5728 5730 5732 5734 5736 5738 5741 5742 5744
5749 5747 5746 5745 5743 5742 5741 5739 5738 5736 5733 5732 5730 5729 5727 5726 5724 5722 5721 5719 5718 5716 5715 5714 5714 5713 5712 5712 5711 5711 5712 5713 5714 5716 5718 5720 5722 5724 5726 5728 5730 5732 5734 5736
5743 5741 5740 5738 5737 5736 5735 5733 5731 5729 5727 5725 5724 5722 5720 5719 5717 5716 5714 5713 5711 5710 5708 5707 5706 5705 5705 5704 5704 5704 5705 5705 5706 5708 5710 5712 5714 5716 5718 5720 5722 5724 5726 5728
5736 5734 5733 5732 5731 5729 5728 5727 5725 5723 5721 5719 5717 5715 5714 5712 5710 5708 5707 5706 5704 5703 5701 5700 5699 5698 5698 5698 5698 5697 5697 5698 5699 5701 5702 5704 5706 5708 5709 5712 5713 5715 5717 5719
5729 5728 5727 5726 5725 5724 5722 5721 5719 5717 5715 5713 5711 5709 5707 5706 5704 5702 5700 5699 5697 5696 5694 5693 5693 5692 5692 5691 5691 5691 5691 5691 5692 5693 5694 5696 5698 5700 5701 5703 5705 5707 5708 5709
5723 5722 5721 5720 5720 5718 5717 5715 5713 5711 5709 5707 5705 5704 5702 5700 5697 5696 5694 5692 5691 5690 5688 5687 5686 5686 5685 5685 5685 5684 5684 5684 5685 5686 5687 5688 5689 5691 5693 5694 5696 5698 5700 5701
5717 5716 5715 5714 5713 5712 5711 5710 5708 5706 5704 5702 5700 5698 5696 5694 5692 5691 5689 5687 5686 5684 5683 5682 5681 5680 5679 5678 5678 5678 5677 5678 5678 5679 5679 5680 5681 5683 5685 5687 5688 5689 5691 5693
5710 5710 5709 5708 5707 5706 5705 5704 5702 5700 5699 5697 5695 5693 5692 5690 5688 5686 5684 5682 5681 5680 5678 5677 5675 5674 5673 5673 5672 5672 5672 5672 5672 5672 5672 5673 5674 5676 5678 5679 5680 5681 5683 5684
5704 5704 5703 5702 5702 5701 5699 5698 5697 5696 5694 5691 5690 5688 5687 5685 5683 5681 5679 5678 5676 5675 5673 5671 5670 5669 5668 5667 5666 5666 5666 5666 5666 5666 5666 5667 5668 5670 5671 5673 5674 5675 5676 5677
5698 5698 5697 5697 5696 5695 5694 5693 5692 5690 5689 5687 5686 5683 5682 5680 5678 5676 5675 5673 5671 5670 5668 5666 5665 5664 5663 5661 5661 5660 5660 5660 5660 5660 5661 5662 5663 5664 5665 5666 5668 5669 5670 5671
5692 5691 5691 5691 5690 5690 5689 5688 5687 5685 5684 5682 5680 5678 5677 5675 5674 5672 5670 5668 5667 5665 5664 5662 5661 5659 5658 5657 5655 5655 5655 5655 5655 5655 5656 5656 5657 5658 5659 5660 5661 5662 5663 5664
5687 5686 5686 5686 5685 5685 5684 5683 5682 5680 5679 5677 5675 5674 5672 5670 5669 5668 5666 5664 5663 5661 5659 5658 5656 5655 5654 5653 5652 5651 5650 5650 5650 5650 5651 5651 5652 5652 5653 5654 5655 5655 5656 5657
5682 5681 5681 5681 5680 5680 5679 5678 5677 5676 5674 5673 5671 5670 5668 5667 5665 5663 5662 5660 5658 5656 5655 5654 5653 5652 5650 5649 5648 5647 5647 5646 5646 5646 5646 5646 5646 5647 5647 5648 5648 5649 5649 5650
5677 5677 5676 5676 5675 5674 5673 5673 5672 5671 5670 5668 5667 5665 5664 5663 5661 5659 5658 5656 5654 5652 5651 5650 5649 5648 5647 5646 5645 5644 5643 5642 5642 5641 5641 5641 5641 5641 5641 5641 5642 5642 5642 5643
5673 5673 5672 5671 5670 5669 5668 5668 5667 5666 5665 5664 5663 5662 5660 5659 5657 5655 5654 5652 5650 5649 5647 5646 5645 5644 5643 5642 5641 5640 5639 5638 5637 5637 5637 5636 5636 5635 5635 5635 5635 5636 5636 5636
5669 5668 5668 5667 5666 5665 5664 5663 5662 5662 5661 5660 5659 5657 5656 5655 5653 5652 5650 5649 5647 5646 5644 5643 5641 5640 5639 5637 5636 5636 5635 5634 5633 5632 5632 5631 5631 5630 5630 5630 5630 5630 5630 5630
5665 5664 5663 5662 5661 5660 5659 5658 5658 5657 5657 5656 5655 5653 5652 5651 5649 5648 5646 5645 5644 5642 5641 5639 5638 5636 5635 5633 5632 5631 5630 5629 5628 5627 5627 5626 5626 5625 5624 5624 5624 5624 5624 5624
5660 5659 5659 5658 5657 5656 5655 5654 5654 5653 5652 5652 5650 5649 5647 5646 5645 5644 5642 5641 5640 5638 5636 5635 5633 5632 5630 5629 5628 5626 5626 5624 5623 5623 5622 5621 5620 5620 5619 5618 5618 5618 5618 5618
5655 5655 5654 5653 5652 5651 5651 5650 5650 5649 5648 5647 5647 5645 5644 5643 5642 5640 5638 5637 5635 5634 5632 5630 5629 5628 5626 5625 5623 5623 5621 5620 5619 5618 5617 5616 5615 5615 5614 5613 5613 5612 5612 5612